Winner, SD

4:45 AM CDT on March 27, 2017 (GMT -0500)
Winner

Weather History for KICR - August, 2014

Change the Weather History Date:

Sunday, August 24, 2014

  Actual Average Record
Temperature  
Mean Temperature 70 °F 73 °F  
Max Temperature 82 °F 86 °F 101 °F (2013)
Min Temperature 58 °F 60 °F 47 °F (2015)
Degree Days  
Heating Degree Days 0 0  
Month to date heating degree days 0 0  
Since 1 June heating degree days 49 59  
Since 1 July heating degree days 12 5  
Cooling Degree Days 5 8  
Month to date cooling degree days 219 247  
Year to date cooling degree days 703 753  
Since 1 June cooling degree days 622 723  
Growing Degree Days 22 (Base 50)    
Moisture  
Dew Point 52 °F    
Average Humidity 58    
Maximum Humidity 87    
Minimum Humidity 28    
Precipitation  
Precipitation 0.00 in 0.05 in 0.10 in (2007)
Month to date precipitation 3.15 1.93  
Year to date precipitation 12.35 16.61  
Sea Level Pressure  
Sea Level Pressure 29.80 in    
Wind  
Wind Speed 12 mph (WSW)    
Max Wind Speed 23 mph    
Max Gust Speed 28 mph    
Visibility 10 miles    
Events      
T = Trace of Precipitation, MM = Missing Value Source: NWS Daily Summary

Daily Weather History Graph

Daily Weather History Graph

Search for Another Location

Airport or City:

Trip Planner

Search our weather history database for the weather conditions in past years. The results will help you decide how hot, cold, wet, or windy it might be!

Date:

Astronomy

Aug. 24, 2014 Rise Set
Actual Time 6:54 AM CDT 8:28 PM CDT
Civil Twilight 6:24 AM CDT 8:57 PM CDT
Nautical Twilight 5:48 AM CDT 9:34 PM CDT
Astronomical Twilight 5:09 AM CDT 10:12 PM CDT
Moon 6:06 AM CDT (8/24) 7:46 PM CDT (8/24)
Length of Visible Light 14h 33m
Length of Day
13h 33m
Waning Crescent, 1% of the Moon is Illuminated
Aug 24
Waning Crescent
Aug 25
New
Sep 2
First Quarter
Sep 8
Full
Sep 15
Last Quarter

Hourly Weather History & Observations

Time (CDT) Temp. Dew Point Humidity Pressure Visibility Wind Dir Wind Speed Gust Speed Precip Events Conditions
12:53 AM 68.0 °F 61.0 °F 78% 29.70 in 10.0 mi South 6.9 mph - N/A   Clear
1:53 AM 66.0 °F 62.1 °F 87% 29.70 in 10.0 mi SSW 10.4 mph - N/A   Clear
2:53 AM 68.0 °F 61.0 °F 78% 29.70 in 10.0 mi SSW 11.5 mph - N/A   Clear
3:53 AM 66.9 °F 55.9 °F 68% 29.71 in 10.0 mi SW 11.5 mph - N/A   Clear
4:53 AM 66.0 °F 50.0 °F 56% 29.72 in 10.0 mi WSW 15.0 mph - N/A   Clear
5:53 AM 64.9 °F 48.0 °F 54% 29.74 in 10.0 mi West 17.3 mph - N/A   Clear
6:53 AM 63.0 °F 51.1 °F 65% 29.78 in 10.0 mi WSW 17.3 mph - N/A   Clear
7:53 AM 63.0 °F 50.0 °F 63% 29.81 in 10.0 mi West 12.7 mph - N/A   Clear
8:53 AM 66.0 °F 51.1 °F 59% 29.82 in 10.0 mi West 13.8 mph - N/A   Clear
9:53 AM 71.1 °F 54.0 °F 55% 29.82 in 10.0 mi West 15.0 mph - N/A   Clear
10:53 AM 75.0 °F 54.0 °F 48% 29.82 in 10.0 mi West 11.5 mph - N/A   Clear
11:53 AM 77.0 °F 50.0 °F 39% 29.82 in 10.0 mi WNW 19.6 mph - N/A   Clear
12:53 PM 78.1 °F 51.1 °F 39% 29.83 in 10.0 mi WNW 18.4 mph - N/A   Clear
1:53 PM 79.0 °F 50.0 °F 36% 29.82 in 10.0 mi West 16.1 mph 26.5 mph N/A   Clear
2:53 PM 81.0 °F 48.9 °F 33% 29.81 in 10.0 mi West 17.3 mph - N/A   Clear
3:53 PM 82.0 °F 48.0 °F 30% 29.82 in 10.0 mi WSW 18.4 mph 25.3 mph N/A   Clear
4:53 PM 82.0 °F 48.0 °F 30% 29.82 in 10.0 mi West 10.4 mph - N/A   Clear
5:53 PM 82.0 °F 46.9 °F 29% 29.81 in 10.0 mi West 9.2 mph - N/A   Clear
6:53 PM 82.0 °F 48.0 °F 30% 29.81 in 10.0 mi WNW 3.5 mph - N/A   Clear
7:53 PM 78.1 °F 55.0 °F 45% 29.82 in 10.0 mi East 4.6 mph - N/A   Partly Cloudy
9:53 PM 71.1 °F 52.0 °F 51% 29.86 in 10.0 mi SSE 4.6 mph - N/A   Scattered Clouds
10:53 PM 69.1 °F 55.0 °F 61% 29.89 in 10.0 mi Calm Calm - N/A   Clear
11:19 PM 66.0 °F 52.0 °F 60% 29.96 in 10.0 mi NNW 11.5 mph - N/A   Clear